sat.trackr.live / text

‹ back to catalog

STARLINK-1596

NORAD 46141 · 2020-057AA

PAYLOAD ACTIVE UNKNOWN

§ Identity

Operator
Country
US
Launch date
2020-08-18
Launch site
AFETR
Launch vehicle
Mass (kg)
RCS (m²)

Purposes: comms

External: N2YO · Heavens-Above · Gunter

§ Orbital elements

Epoch: 2026-09-19T21:28:29.400672Z

Period
91.30 min
Inclination
53.0308°
Eccentricity
0.0003836
Mean motion
15.77255387 rev/d
Perigee alt
335.6 km
Apogee alt
340.8 km
Semi-major
6,716.4 km
B*
6.0254e-4
RAAN
3.3090°
Arg perigee
5.4116°
Mean anomaly
354.6944°
Rev number
33,760

§ Raw data

STARLINK-15961 46141U 20057AA  26262.89478473  .00101543  00000+0  60254-3 0  99912 46141  53.0308   3.3090 0003836   5.4116 354.6944 15.77255387337603

JSON: /api/v1/satellites/46141 · /tle

For live sub-satellite position, see the globe view (requires WebGL).

§ Visibility from observer

Set your observer location to see the next 7 days of passes ≥ 10°. The values pass through the URL so the page stays shareable.

No JS? Fill the form by hand. The geolocation button needs JavaScript.